Weather Roundup
Issued by NWS

Home | Current Version | Previous Version | Text Only | Print | Product List | Glossary On
Versions: 1 2 3 4 5 6 7 8 9 10 11 12 13 14 15 16 17 18 19 20 21 22 23 24 25 26 27 28 29 30 31 32 33 34 35 36 37 38 39 40 41 42 43 44 45 46 47 48 49 50
000
NZUS93 KARX 190159
HRRWXR

CURRENT HOURLY OBSERVATIONS ACROSS
MUCH OF THE UPPER MISSISSIPPI VALLEY
NATIONAL WEATHER SERVICE LA CROSSE WI
800 PM CST SUN FEB 18 2018


...SOUTHEAST MINNESOTA...


CITY           SKY/WX    TMP DP  RH WIND       PRES   REMARKS
ROCHESTER      FAIR      35  29  78 S17G28    29.67S WCI  25
ROCHESTER/MAYO MOCLDY    37  29  74 SE13G21   29.67F WCI  28
WINONA         FAIR      37  28  70 S10G20    29.71S WCI  30
AUSTIN         FAIR      36  28  75 S8G16     29.66F WCI  29
ALBERT LEA     FAIR      36  28  75 S9        29.65S WCI  29
DODGE CENTER   FAIR      36  28  75 S15       29.65F WCI  26
PRESTON        FAIR      34  29  80 S14       29.70F WCI  25
OWATONNA       CLOUDY    37  30  75 S15G23    29.64S WCI  28
FARIBAULT      FAIR      37  30  75 CALM      29.66R
$$

...ELSEWHERE IN MINNESOTA...


CITY           SKY/WX    TMP DP  RH WIND       PRES   REMARKS
MINNEAPOLIS    MOCLDY    37  31  78 S5        29.67R WCI  33
INTNL FALLS    CLOUDY     9   4  80 NE10      29.92R WCI  -5
DULUTH         LGT SNOW  22  19  89 N8        29.75R FOG     WCI  12
RED WING       CLOUDY    39  27  60 S8        29.67S WCI  34
REDWOOD FALLS  CLOUDY    30  20  66 N13G25    29.68R WCI  20
MANKATO        FAIR      37  30  75 S6        29.65R WCI  32
WORTHINGTON    CLOUDY    31  26  82 N16       29.67R WCI  20
FAIRMONT       CLOUDY    37  31  78 SW6       29.64S WCI  32
$$

...SOUTHWEST WISCONSIN...


CITY           SKY/WX    TMP DP  RH WIND       PRES   REMARKS
LA CROSSE      FAIR      39  29  67 S9        29.76S WCI  33
PRAIRIE DU CHI FAIR      39  29  67 SE6       29.79F WCI  34
BOSCOBEL       FAIR      40  30  67 VRB6      29.81F
LONE ROCK      NOT AVBL
PLATTEVILLE    MOCLDY    38  32  76 S12       29.81S WCI  31
FORT MC COY    FAIR      36  28  73 S7        29.78S WCI  30
CAMP DOUGLAS   MOCLDY    37  28  71 S13       29.78S WCI  28
MAUSTON-NEW LI CLOUDY    37  29  71 S10G17    29.79F WCI  30
VIROQUA        FAIR      35  31  85 S13       29.77S WCI  26
WIS DELLS      CLOUDY    34  29  80 S15       29.81F WCI  24
$$

...ELSEWHERE IN WISCONSIN...


CITY           SKY/WX    TMP DP  RH WIND       PRES   REMARKS
MILWAUKEE      MOCLDY    36  30  79 S18G35    29.89F WCI  26
MADISON        MOCLDY    36  30  79 S12G23    29.85R WCI  28
GREEN BAY      CLOUDY    34  25  69 S9        29.86S WCI  27
EAU CLAIRE     NOT AVBL
BLACK RVR FLS  FAIR      37  24  59 S7        29.76S WCI  31
MEDFORD        CLOUDY    31  23  71 S12       29.73S WCI  22
WAUSAU         FAIR      30  22  72 S10       29.77R WCI  21
WIS RAPIDS     FAIR      35  22  58 S9        29.81R WCI  28
MARSHFIELD     MOCLDY    30  23  75 S14       29.75S WCI  19
RICE LAKE      CLOUDY    38  27  65 S8        29.70R WCI  32
$$

...NORTHEAST IOWA...


CITY           SKY/WX    TMP DP  RH WIND       PRES   REMARKS
WATERLOO       FAIR      37  30  75 SE12      29.72S WCI  29
DUBUQUE        FAIR      37  29  72 S18       29.79R WCI  27
DECORAH        MOCLDY    37  30  75 S12G22    29.72F WCI  30
MASON CITY     CLOUDY    36  29  75 S15       29.66F WCI  27
CHARLES CITY   FAIR      36  34  93 SE13      29.70F WCI  27
OELWEIN        FAIR      36  36 100 SE15      29.75R WCI  26
$$

...ELSEWHERE IN IOWA...


CITY           SKY/WX    TMP DP  RH WIND       PRES   REMARKS
DES MOINES     CLOUDY    45  30  55 S9        29.69S
IOWA CITY      MOCLDY    41  29  62 SE6       29.79R
FORT DODGE     CLEAR     44  27  51 S10       29.64F
MARSHALLTOWN   CLOUDY    39  31  72 SE9       29.70F WCI  33
CEDAR RAPIDS   FAIR      41  29  62 S10       29.76R
$$

...NORTHERN ILLINOIS...


CITY           SKY/WX    TMP DP  RH WIND       PRES   REMARKS
CHICAGO-OHARE  CLOUDY    38  30  73 SE16      29.93F WCI  29
CHICAGO-MIDWAY CLOUDY    40  31  70 S15G26    29.95F WCI  32
MOLINE         FAIR      41  31  67 SE12      29.81F
ROCKFORD       MOCLDY    37  30  75 S20       29.88F WCI  27
PEORIA         FAIR      42  32  67 S20G31    29.88S
$$

NOTE: "FAIR" INDICATES FEW OR NO CLOUDS BELOW 12,000 FEET WITH NO
SIGNIFICANT WEATHER AND/OR OBSTRUCTIONS TO VISIBILITY. WIND
SPEEDS ARE IN MILES-PER-HOUR.




USA.gov is the U.S. government's official web portal to all federal, state and local government web resources and services.